Hulett, WY

4:19 AM MST on December 10, 2019 (GMT -0700)
Hulett

Weather History for KW43 - June, 2019

Change the Weather History Date:

Monday, June 10, 2019

  Actual Average (KEFC) Record (KEFC)
Temperature  
Mean Temperature 52 °F -  
Max Temperature 68 °F 80 °F 98 °F (1952)
Min Temperature 37 °F 50 °F 35 °F (1950)
Degree Days  
Heating Degree Days 12    
Growing Degree Days 2 (Base 50)    
Moisture  
Dew Point 34 °F    
Average Humidity 49    
Maximum Humidity 87    
Minimum Humidity 26    
Precipitation  
Precipitation 0.00 in - - ()
Sea Level Pressure  
Sea Level Pressure 30.30 in    
Wind  
Wind Speed 8 mph (SSW)    
Max Wind Speed 17 mph    
Max Gust Speed 23 mph    
Visibility 10 miles    
Events      
Averages and records for this station are not official NWS values.
T = Trace of Precipitation, MM = Missing Value Source: NWS Daily Summary

Daily Weather History Graph

Daily Weather History Graph

Search for Another Location

Airport or City:

Astronomy

Jun. 10, 2019 Rise Set
Actual Time 5:12 AM MDT 8:42 PM MDT
Civil Twilight 4:36 AM MDT 9:19 PM MDT
Nautical Twilight 3:47 AM MDT 10:08 PM MDT
Astronomical Twilight 2:45 AM MDT 11:10 PM MDT
Moon 1:17 PM MDT 1:47 AM MDT
Length of Visible Light 16h 43m
Length of Day
15h 30m
First Quarter, 56% of the Moon is Illuminated
Jun 10
First Quarter
Jun 17
Full
Jun 25
Last Quarter
Jul 2
New
Jul 9
First Quarter

Hourly Weather History & Observations

Time (MDT) Temp. Windchill Dew Point Humidity Pressure Visibility Wind Dir Wind Speed Gust Speed Precip Events Conditions
12:15 AM 41.0 °F 35.8 °F 35.6 °F 81% 30.42 in 10.0 mi South 8.1 mph - N/A   Clear
12:35 AM 42.8 °F 37.0 °F 33.8 °F 70% 30.41 in 10.0 mi South 10.4 mph - N/A   Clear
12:55 AM 42.8 °F 38.0 °F 33.8 °F 70% 30.41 in 10.0 mi South 8.1 mph - N/A   Clear
1:15 AM 41.0 °F 37.1 °F 33.8 °F 76% 30.41 in 10.0 mi SSW 5.8 mph - N/A   Clear
1:35 AM 42.8 °F 40.1 °F 33.8 °F 70% 30.41 in 10.0 mi SSW 4.6 mph - N/A   Clear
1:55 AM 41.0 °F 35.8 °F 33.8 °F 76% 30.40 in 10.0 mi South 8.1 mph - N/A   Clear
2:15 AM 41.0 °F 36.4 °F 33.8 °F 76% 30.40 in 10.0 mi SSW 6.9 mph - N/A   Clear
2:35 AM 41.0 °F 37.1 °F 33.8 °F 76% 30.40 in 10.0 mi SSW 5.8 mph - N/A   Clear
2:55 AM 41.0 °F 36.4 °F 33.8 °F 76% 30.40 in 10.0 mi SSW 6.9 mph - N/A   Clear
3:15 AM 41.0 °F 35.8 °F 33.8 °F 76% 30.40 in 10.0 mi SSW 8.1 mph - N/A   Clear
3:35 AM 39.2 °F 33.0 °F 33.8 °F 81% 30.40 in 10.0 mi SSW 9.2 mph - N/A   Clear
3:55 AM 39.2 °F 34.2 °F 33.8 °F 81% 30.40 in 10.0 mi South 6.9 mph - N/A   Clear
4:15 AM 37.4 °F 30.8 °F 33.8 °F 87% 30.40 in 10.0 mi SSW 9.2 mph - N/A   Clear
4:35 AM 37.4 °F 31.4 °F 32.0 °F 81% 30.39 in 10.0 mi SSW 8.1 mph - N/A   Clear
4:55 AM 37.4 °F 32.1 °F 32.0 °F 81% 30.39 in 10.0 mi SSW 6.9 mph - N/A   Clear
5:15 AM 41.0 °F 39.0 °F 32.0 °F 70% 30.39 in 10.0 mi SW 3.5 mph - N/A   Clear
5:35 AM 39.2 °F - 32.0 °F 75% 30.39 in 10.0 mi Calm Calm - N/A   Clear
5:55 AM 42.8 °F 38.6 °F 33.8 °F 70% 30.39 in 10.0 mi WSW 6.9 mph - N/A   Clear
6:15 AM 44.6 °F 40.7 °F 33.8 °F 66% 30.38 in 10.0 mi WSW 6.9 mph - N/A   Clear
6:35 AM 46.4 °F 43.5 °F 35.6 °F 66% 30.38 in 10.0 mi WSW 5.8 mph - N/A   Clear
6:55 AM 51.8 °F - 33.8 °F 50% 30.38 in 10.0 mi SSW 10.4 mph 17.3 mph N/A   Clear
7:15 AM 55.4 °F - 33.8 °F 44% 30.37 in 10.0 mi SSW 12.7 mph 18.4 mph N/A   Clear
7:35 AM 55.4 °F - 33.8 °F 44% 30.37 in 10.0 mi SSW 9.2 mph 16.1 mph N/A   Clear
7:55 AM 59.0 °F - 33.8 °F 39% 30.36 in 10.0 mi SSW 13.8 mph 17.3 mph N/A   Clear
8:15 AM 59.0 °F - 32.0 °F 36% 30.36 in 10.0 mi SSW 13.8 mph 19.6 mph N/A   Clear
8:35 AM 60.8 °F - 32.0 °F 34% 30.36 in 10.0 mi SSW 16.1 mph 20.7 mph N/A   Clear
8:55 AM 60.8 °F - 32.0 °F 34% 30.34 in 10.0 mi SSW 13.8 mph - N/A   Clear
9:15 AM 60.8 °F - 32.0 °F 34% 30.34 in 10.0 mi SSW 17.3 mph - N/A   Clear
9:35 AM 62.6 °F - 32.0 °F 32% 30.34 in 10.0 mi SSW 15.0 mph - N/A   Clear
9:55 AM 62.6 °F - 32.0 °F 32% 30.33 in 10.0 mi SSW 10.4 mph - N/A   Clear
10:15 AM 62.6 °F - 32.0 °F 32% 30.32 in 10.0 mi SW 11.5 mph - N/A   Clear
10:35 AM 64.4 °F - 33.8 °F 32% 30.32 in 10.0 mi SW 11.5 mph 16.1 mph N/A   Clear
10:55 AM 64.4 °F - 32.0 °F 30% 30.31 in 10.0 mi WSW 13.8 mph 19.6 mph N/A   Clear
11:15 AM 64.4 °F - 32.0 °F 30% 30.31 in 10.0 mi SW 11.5 mph 18.4 mph N/A   Clear
11:35 AM 64.4 °F - 32.0 °F 30% 30.30 in 10.0 mi SSW 9.2 mph 16.1 mph N/A   Clear
11:55 AM 64.4 °F - 32.0 °F 30% 30.30 in 10.0 mi SW 11.5 mph - N/A   Clear
12:15 PM 64.4 °F - 32.0 °F 30% 30.30 in 10.0 mi SW 9.2 mph - N/A   Clear
12:35 PM 64.4 °F - 32.0 °F 30% 30.29 in 10.0 mi SSW 11.5 mph 16.1 mph N/A   Mostly Cloudy
12:55 PM 64.4 °F - 33.8 °F 32% 30.28 in 10.0 mi SSW 6.9 mph - N/A   Overcast
1:15 PM 64.4 °F - 32.0 °F 30% 30.28 in 10.0 mi SSW 9.2 mph 20.7 mph N/A   Overcast
1:35 PM 64.4 °F - 32.0 °F 30% 30.28 in 10.0 mi West 8.1 mph - N/A   Overcast
1:55 PM 64.4 °F - 32.0 °F 30% 30.27 in 10.0 mi Calm Calm - N/A   Overcast
2:15 PM 68.0 °F - 33.8 °F 28% 30.26 in 10.0 mi South 8.1 mph - N/A   Mostly Cloudy
2:35 PM 66.2 °F - 30.2 °F 26% 30.25 in 10.0 mi SSW 4.6 mph - N/A   Mostly Cloudy
2:55 PM 64.4 °F - 32.0 °F 30% 30.25 in 10.0 mi WSW 4.6 mph - N/A   Overcast
3:15 PM 64.4 °F - 30.2 °F 28% 30.25 in 10.0 mi WNW 8.1 mph 23.0 mph N/A   Overcast
3:35 PM 64.4 °F - 32.0 °F 30% 30.25 in 10.0 mi NW 8.1 mph - N/A   Overcast
3:55 PM 64.4 °F - 32.0 °F 30% 30.25 in 10.0 mi WNW 6.9 mph - N/A   Overcast
4:15 PM 64.4 °F - 32.0 °F 30% 30.24 in 10.0 mi West 10.4 mph 16.1 mph N/A   Overcast
4:35 PM 64.4 °F - 30.2 °F 28% 30.24 in 10.0 mi NNW 6.9 mph 16.1 mph N/A   Overcast
4:55 PM 64.4 °F - 32.0 °F 30% 30.23 in 10.0 mi WNW 5.8 mph - N/A   Overcast
5:15 PM 64.4 °F - 32.0 °F 30% 30.23 in 10.0 mi NNW 5.8 mph - N/A   Overcast
5:35 PM 66.2 °F - 33.8 °F 30% 30.21 in 10.0 mi North 9.2 mph - N/A   Overcast
5:55 PM 64.4 °F - 32.0 °F 30% 30.21 in 10.0 mi NNW 3.5 mph - N/A   Mostly Cloudy
6:15 PM 64.4 °F - 32.0 °F 30% 30.20 in 10.0 mi North 3.5 mph - N/A   Mostly Cloudy
6:35 PM 62.6 °F - 32.0 °F 32% 30.20 in 10.0 mi NNE 4.6 mph - N/A   Scattered Clouds
6:55 PM 62.6 °F - 35.6 °F 37% 30.20 in 10.0 mi NNE 3.5 mph - N/A   Scattered Clouds
7:15 PM 62.6 °F - 35.6 °F 37% 30.19 in 10.0 mi Calm Calm - N/A   Mostly Cloudy
7:35 PM 60.8 °F - 37.4 °F 42% 30.21 in 10.0 mi NNE 3.5 mph - N/A   Overcast
7:55 PM 60.8 °F - 37.4 °F 42% 30.21 in 10.0 mi Calm Calm - N/A   Overcast
8:15 PM 57.2 °F - 42.8 °F 59% 30.19 in 10.0 mi East 5.8 mph - N/A   Overcast
8:35 PM 59.0 °F - 39.2 °F 48% 30.19 in 10.0 mi SSE 5.8 mph - N/A   Overcast
8:55 PM 55.4 °F - 41.0 °F 58% 30.19 in 10.0 mi SSE 6.9 mph - N/A   Overcast
9:15 PM 55.4 °F - 41.0 °F 58% 30.19 in 10.0 mi SSE 6.9 mph - N/A   Overcast
9:35 PM 55.4 °F - 41.0 °F 58% 30.19 in 10.0 mi South 5.8 mph - N/A   Overcast
9:55 PM 55.4 °F - 39.2 °F 54% 30.19 in 10.0 mi SSE 9.2 mph - N/A   Overcast
10:15 PM 55.4 °F - 39.2 °F 54% 30.19 in 10.0 mi SSE 8.1 mph - N/A   Overcast
10:35 PM 53.6 °F - 39.2 °F 58% 30.18 in 10.0 mi SSE 6.9 mph - N/A   Mostly Cloudy
10:55 PM 51.8 °F - 39.2 °F 62% 30.18 in 10.0 mi South 6.9 mph - N/A   Scattered Clouds
11:15 PM 50.0 °F - 41.0 °F 71% 30.17 in 10.0 mi South 8.1 mph - N/A   Clear
11:35 PM 50.0 °F - 39.2 °F 66% 30.17 in 10.0 mi South 5.8 mph - N/A   Clear
11:55 PM 48.2 °F - 41.0 °F 76% 30.16 in 10.0 mi South 6.9 mph - N/A   Clear